Terminal Aerodrome Forecast
Issued by NWS

Home | Current Version | Previous Version | Text Only | Print | Product List | Glossary On
Versions: 1 2 3 4 5 6 7 8 9 10 11 12 13 14 15 16 17 18 19 20 21 22
000
FTUS46 KSEW 201700
TAFSEA
TAF
KSEA 201733Z 2018/2124 07009KT P6SM OVC026
      TEMPO 2018/2020 4SM -RA BR BKN020 OVC035
     FM202200 20015G25KT P6SM -RA BKN020 OVC040
     FM211100 22012G20KT P6SM -SHRA BKN020 BKN040=

USA.gov is the U.S. government's official web portal to all federal, state and local government web resources and services.